Overview Statistics Trail Chart Weather Telemetry Raw packets
 

This is the latest recevied weather packets stored in our database for station/object EA1BVF-10. If no packets are shown the sender has not sent any weather packets the latest 10 day(s).

<< 1 2 3 4 >>
Time Temp. Humidity Pressure Rain* Wind** Luminosity Snow
1788568675 22.22° C 74% 1041.6 hPa - - - -
1788566868 22.78° C 74% 1042.1 hPa - - - -
1788565068 22.78° C 74% 1042.1 hPa - - - -
1788563268 23.33° C 75% 1041.9 hPa - - - -
1788561468 23.33° C 75% 1042 hPa - - - -
1788559668 23.33° C 75% 1042 hPa - - - -
1788557868 23.89° C 76% 1042.2 hPa - - - -
1788556068 23.89° C 81% 1042.4 hPa - - - -
1788554268 23.89° C 84% 1042.5 hPa - - - -
1788552467 23.89° C 86% 1042.2 hPa - - - -
1788550667 23.89° C 87% 1041.9 hPa - - - -
1788548867 23.89° C 88% 1041.6 hPa - - - -
1788547067 23.33° C 88% 1041.1 hPa - - - -
1788545267 23.33° C 88% 1041 hPa - - - -
1788543467 23.33° C 88% 1041.1 hPa - - - -
1788541667 23.33° C 86% 1041.4 hPa - - - -
1788539867 23.89° C 84% 1041.5 hPa - - - -
1788538067 23.89° C 81% 1041.5 hPa - - - -
1788536267 23.89° C 79% 1041.5 hPa - - - -
1788534466 23.33° C 77% 1041.6 hPa - - - -
1788532666 23.33° C 72% 1041.8 hPa - - - -
1788530866 22.78° C 69% 1041.6 hPa - - - -
1788529066 22.78° C 69% 1041.8 hPa - - - -
1788527266 22.22° C 68% 1041.6 hPa - - - -
1788525466 21.67° C 69% 1041.8 hPa - - - -

* Rain since midnight (hover to see other rain measurements)
** Current wind speed in m/s (hover to see current wind gust speed)